Weather Roundup
Issued by NWS Chicago, IL

Home | Current Version | Previous Version | Graphics & Text | Print | Product List | Glossary On
Versions: 1 2 3 4 5 6 7 8 9 10 11 12 13 14 15 16 17 18 19 20 21 22 23 24 25 26 27 28 29 30 31 32 33 34 35 36 37 38 39 40 41 42 43 44 45 46 47 48 49 50
000
NZUS59 KLOT 230708
HRRLOT

CHICAGO AREA WEATHER ROUNDUP
NATIONAL WEATHER SERVICE CHICAGO/ROMEOVILLE IL
200 AM CDT SUN APR 23 2017

NOTE: "FAIR" INDICATES FEW OR NO CLOUDS BELOW 12,000 FEET WITH NO
SIGNIFICANT WEATHER AND/OR OBSTRUCTIONS TO VISIBILITY.

* THESE STATIONS ARE NOT UNDER NWS QUALITY CONTROL. THEY ALSO MAY NOT
  REPORT WEATHER SUCH AS PRECIPITATION OR FOG.

ILZ005-006-012>014-019>023-230800-
NORTHEAST ILLINOIS

CITY           SKY/WX    TMP DP  RH WIND       PRES   REMARKS
OHARE          CLEAR     40  27  59 CALM      30.13F
MIDWAY         CLEAR     45  30  55 CALM      30.14F
AURORA         CLEAR     37  30  75 CALM      30.14F
LANSING*       CLEAR     37  34  89 CALM      30.14F
JOLIET*        CLEAR     37  33  86 CALM      30.14F
WAUKEGAN       CLEAR     36  33  89 SW5       30.12F
DUPAGE AIRPORT CLEAR     37  31  78 CALM      30.13F
WHEELING       CLEAR     38  30  73 CALM      30.15S
KANKAKEE*      CLEAR     37  28  70 CALM      30.14F
MORRIS*        CLEAR     43  26  52 CALM      30.13S
LEWIS AIRPORT* CLEAR     40  31  71 NE5       30.14S
NORTHERLY ISL    N/A     46  33  60 CALM        N/A
$$

WIZ051-052-058>065-066-070>072-230800-
SOUTHEAST WISCONSIN

CITY           SKY/WX    TMP DP  RH WIND       PRES   REMARKS
MILWAUKEE      CLEAR     43  28  55 CALM      30.12F
KENOSHA*       CLEAR     39  30  70 SW5       30.12F
RACINE*        CLEAR     40  30  67 W3        30.14F
WAUKESHA       CLEAR     41  23  48 CALM      30.13S
WEST BEND      CLEAR     39  28  65 CALM      30.11F
$$

INZ001>003-010>013-019-020-230800-
NORTHWEST INDIANA

CITY           SKY/WX    TMP DP  RH WIND       PRES   REMARKS
GARY*          CLEAR     38  36  91 CALM      30.14F
MICHIGAN CITY* NOT AVBL
RENSSELAER*    NOT AVBL
VALPARAISO     CLEAR     42  26  53 NE3       30.13F
$$

LMZ740>746-230800-
SOUTHERN LAKE MICHIGAN

STATION/POSITION TIME  SKY/WX   TEMP WIND        PRES    VSBY
                                AIR  DIR/SP/G
                 (UTC)          (F)  (DEG/KT/KT) (MB)    (MI)
HARRISON CRIB    0630            47  170/  7/  8   N/A
BURNHAM HARBOR   0700            45   CALM  /  5   N/A
CALUMET HARBOR   0648            47   80/  3/  4 1020.0F
BURNS HARBOR     0640            46  100/  5/  6 1020.7F
MICHIGAN CITY    0640            44   90/  4/  4   N/A
$$

ABBREVIATIONS USED IN REMARKS
   TC - TEMPERATURE IN CELSIUS
  WCI - WIND CHILL INDEX
   HX - HEAT INDEX
  VSB - VISIBILITY
$$



USA.gov is the U.S. government's official web portal to all federal, state and local government web resources and services.